Other Public Products
Issued by NWS Grand Forks, ND

Home | Current Version | Previous Version | Graphics & Text | Print | Product List | Glossary On
Versions: 1 2 3 4 5 6 7 8 9 10 11 12 13 14 15 16 17 18 19 20 21 22 23 24 25 26 27 28 29 30 31 32 33 34 35 36 37 38 39 40 41 42 43 44 45 46 47 48 49 50
000
FPUS83 KFGF 251010
OPUFGF
PRAIRIE TO PINES WEATHER ROUNDUP
NATIONAL WEATHER SERVICE EASTERN NORTH DAKOTA/GRAND FORKS ND
500 AM CDT MON JUL 25 2016

 **SATELLITE DATA USED TO AUGMENT SKY COVER AT AUTOMATED STATIONS**
 *****  WEATHER ACROSS EASTERN NORTH DAKOTA  *****

CITY           SKY/WX    TMP DP  RH WIND       PRES   REMARKS
GRAND FORKS    CLEAR     60  57  89 W6        29.98S
GRAND FORKS AF CLEAR     63  59  86 NW8       29.99S
GRAND CITY NWS   N/A     59 N/A N/A W2          N/A
BUXTON           N/A     61  60  98 W5          N/A
DEVILS LAKE    CLEAR     62  59  90 CALM      30.03S
FARGO          CLEAR     61  56  83 W3        30.01R
WAHPETON ARPT  SUNNY     57  54  88 W5        30.03S
$$

 *****  WEATHER ACROSS CENTRAL AND WESTERN NORTH DAKOTA  *****

CITY           SKY/WX    TMP DP  RH WIND       PRES   REMARKS
JAMESTOWN      CLEAR     59  58  96 CALM      30.03S
BISMARCK       CLEAR     61  58  90 NE6       30.03S
MINOT          CLEAR     63  59  87 CALM      30.00F
MINOT AFB      CLEAR     57  55  94 E1        29.99F
GARRISON         N/A     58  56  93 E3        30.00F
WILLISTON      CLEAR     62  56  80 CALM      29.97F
DICKINSON      CLEAR     57  50  77 S8        29.99F
HETTINGER      CLEAR     64  49  57 SE5       30.03F
$$

 *****  OTHER OBSERVATIONS NORTHEAST NORTH DAKOTA  *****

CITY           SKY/WX    TMP DP  RH WIND       PRES   REMARKS
WALHALLA       NOT AVBL
LANGDON        FAIR      55  55 100 W6        30.02S
CAVALIER       FAIR      61  57  88 W7        29.98R
GRAFTON        FAIR      61  61 100 W6        29.99S
CANDO          NOT AVBL
FORT TOTTEN      N/A     59  56  90 CALM      29.95S
ROLLA          FAIR      55  55 100 W8        30.04S
RUGBY          NOT AVBL
 ***** THE ABOVE OBSERVATIONS ARE NON NWS ARE NOT QUALITY
        CONTROLLED AND MAY MIS-REPORT RAIN FOR SNOW...
$$

 *****  OTHER OBSERVATIONS SOUTHEAST NORTH DAKOTA *****

CITY           SKY/WX    TMP DP  RH WIND       PRES   REMARKS
COOPERSTOWN    NOT AVBL
VALLEY CITY      N/A     57  57 100 S3        30.06S
OAKES            N/A    N/A N/A N/A MISG        N/A
GWINNER        FAIR      57  57 100 SW6       30.04S
SHEYENNE NWR     N/A     57  56  96 W3        29.95S
BUFFALO          N/A     43  57 100 W2          N/A
WYNDMERE       NOT AVBL
 ***** THE ABOVE OBSERVATIONS ARE NON NWS ARE NOT QUALITY
       CONTROLLED AND MAY MIS-REPORT RAIN FOR SNOW...
$$

  *****  WEATHER ACROSS NORTHERN MINNESOTA  *****

CITY           SKY/WX    TMP DP  RH WIND       PRES   REMARKS
FLAG ISLAND    CLEAR     63  59  88 W6        29.93S
WARROAD        NOT AVBL
ROSEAU         CLEAR     61  55  82 W3        29.97R
HALLOCK        CLEAR     57  57 100 CALM      29.97R
THF RVR FALLS  CLEAR     59  58  96 CALM      30.01R
HALSTAD        NOT AVBL
FOSSTON        CLEAR     54  54 100 CALM      30.02R
BAUDETTE       CLEAR     59  57  93 W6        29.96R
WASKISH        CLEAR     66  63  88 NW7       29.98R
CROOKSTON      CLEAR     61  57  88 W3        30.00S
$$
  *****  WEATHER ACROSS CENTRAL AND WEST MINNESOTA  *****

CITY           SKY/WX    TMP DP  RH WIND       PRES   REMARKS
BEMIDJI        CLEAR     59  57  94 W6        30.00S
PARK RAPIDS    CLEAR     59  55  87 CALM      30.01S
WADENA         CLEAR     59  57  94 W3        30.02S
DETROIT LAKES  CLEAR     64  57  77 NW3       30.04S
MOORHEAD       CLEAR     61  57  88 W3        30.02S
FERGUS FALLS   CLEAR     61  61 100 CALM      30.04S
ELBOW LAKE     FAIR      61  58  92 NW3       30.04S
MORRIS MN      CLEAR     61  59  94 CALM      30.03S
STAPLES        CLEAR     59  57  94 W3        30.02S
WHEATON        CLEAR     63  61  94 W3        30.06R
$$
  *****  WEATHER ELSEWHERE ACROSS MINNESOTA  *****

CITY           SKY/WX    TMP DP  RH WIND       PRES   REMARKS
DULUTH         CLEAR     62  60  93 NW8       29.96S
INTRNTL FALLS  CLEAR     59  58  96 W5        29.95R
ELY            CLEAR     59  55  88 W5        29.95R
CLOQUET        CLEAR     63  57  82 W7        29.98R
BRAINERD       CLEAR     64  59  83 W6        30.01R
HIBBING        CLEAR     57  57 100 CALM      29.97R
ALEXANDRIA     CLEAR     62  58  86 W3        30.05S
SAINT CLOUD    CLEAR     60  59  96 CALM      30.01R
MINNEAPOLIS    PTCLDY    68  61  78 NW3       30.01S
$$

  *****  WEATHER ACROSS SOUTH DAKOTA  *****

CITY           SKY/WX    TMP DP  RH WIND       PRES   REMARKS
SIOUX FALLS    CLEAR     60  57  89 CALM      30.07S
BROOKINGS      CLEAR     62  59  90 S3        30.07F
WATERTOWN      CLEAR     59  57  93 S3        30.07S
HURON          CLEAR     61  58  90 SE3       30.05S
SISSETON         N/A     57  56  96 CALM      30.03S
ABERDEEN       CLEAR     57  54  89 CALM      30.04S
MITCHELL       CLEAR     64  60  87 CALM      30.06F
PIERRE         CLEAR     68  55  63 SW3       30.04S
MOBRIDGE       CLEAR     67  58  72 SE8       30.02S
RAPID CITY     CLEAR     68  55  63 S10       30.08F
$$

  *****  SOME WEATHER IN NEARBY STATES *****

CITY           SKY/WX    TMP DP  RH WIND       PRES   REMARKS
GLASGOW MT     CLEAR     59  52  77 VRB3      29.97S
GREAT FALLS MT CLEAR     58  42  55 SW7       30.06R
CHEYENNE WY    CLEAR     56  54  93 S12       30.25S
SCOTTSBLUFF NE CLEAR     59  55  87 E8        30.17S
OMAHA NE       PTCLDY    66  62  87 NW6       30.08R
DES MOINES IA  PTCLDY    71  64  78 N7        30.05R
DAVENPORT IA   CLOUDY    68  66  93 NW5       30.02S
CHICAGO IL     MOCLDY    73  69  87 W6        29.95F
EAU CLAIRE WI  CLEAR     65  61  87 CALM      29.98S
LA CROSSE WI   CLEAR     68  63  84 W3        29.99S
$$

  *****  SOME NATIONAL WEATHER *****

CITY           SKY/WX    TMP DP  RH WIND       PRES   REMARKS
LA GUARDIA NY  CLOUDY    80  67  64 SW9G18    29.93R
RALEIGH NC     PTCLDY    78  75  90 S6        30.05R
ATLANTA GA     PTCLDY    77  70  79 CALM      30.07R
NEW ORLEANS LA CLOUDY    81  77  88 CALM      29.93S
OKLAHOMA CITY  CLOUDY    79  71  76 SW3       29.99R
ALBUQUERQUE NM CLOUDY    72  55  55 NW5       30.23R
SALT LAKE CITY PTCLDY    72  39  30 E7        30.04R
LOS ANGELES CA PTCLDY    70  65  84 CALM      29.92S
BOISE ID       CLEAR     67  35  30 SE8       29.98R
SEATTLE WA     CLEAR     62  55  77 NW3       30.04R
$$

*** WEATHER ACROSS MANITOBA...SASKATCHEWAN AND ONTARIO ***
                ***ONTARIO***

CITY           SKY/WX    TMP DP  RH WIND       PRES   REMARKS
GERALDTON      LGT RAIN  63  63 100 W6        29.71S FOG
THUNDER BAY    MOCLDY    64  59  82 W7        29.82R
SIOUX LOOKOUT  MOCLDY    59  59 100 W5        29.88R
TORONTO        CLOUDY    73  70  88 SE3       29.84R THUNDER
BIG TROUT LK   LGT RAIN  57  57 100 NW12G17   29.67  FOG
PICKLE LAKE    NOT AVBL
DRYDEN         CLEAR     57  57 100 W7        29.91R
KENORA         PTCLDY    61  59  94 W6        29.94R
$$
                *** MANITOBA***

CITY           SKY/WX    TMP DP  RH WIND       PRES   REMARKS
BRANDON        CLEAR     52  50  93 W7        29.99R
DAUPHIN        CLEAR     59  55  88 SW8       29.92S
ISLAND LAKE    PTCLDY    61  61 100 W5        29.80S
PILOT MOUND      N/A     54  52  94 SW5         N/A
THE PAS        MOCLDY    64  57  77 SW10      29.78R
THOMPSON       PTCLDY    59  57  94 VRB2      29.70F
WINNIPEG       CLEAR     61  59  94 W8        29.94R
LYNN LAKE      CLEAR     57  54  88 MISG      29.63S
CHURCHILL      FOG       45  45 100 S10       29.74F VSB 1/4
GILLAM         FOG       50  50 100 SE3       29.76S VSB 1/4
$$
                ***SASKATCHEWAN***

CITY           SKY/WX    TMP DP  RH WIND       PRES   REMARKS
ESTEVAN        CLEAR     59  55  88 E7        29.99F
KINDERSLEY     PTCLDY    61  57  88 N13G22    29.98R
LLOYDMINSTER   CLEAR     55  55 100 W10       29.98R
PRINCE ALBERT  NOT AVBL
REGINA         CLEAR     55  54  94 SE7       29.98F
YORKTON        CLEAR     61  55  82 SW12      29.95S   C1F1C2F2C3F3C4F4C5F5C6F6C7F7C8F8C9F9CaFaCbFbCcFcCdFdCe!



USA.gov is the U.S. government's official web portal to all federal, state and local government web resources and services.